Terminal Aerodrome Forecast
Issued by NWS New Orleans/Baton Rouge, LA

Home | Current Version | Previous Version | Text Only | Print | Product List | Glossary On
Versions: 1 2 3 4 5 6 7 8 9 10 11 12 13 14 15 16 17 18 19 20 21 22 23 24 25 26 27 28 29 30 31 32 33 34 35 36 37 38 39 40 41 42 43 44 45 46 47 48 49 50
000
FTUS44 KLIX 042300
TAFNEW
TAF
KNEW 042330Z 0500/0524 20015KT P6SM SCT030
     FM050300 19009KT P6SM BKN015
     FM050600 20008KT P6SM OVC005
     FM051100 35010G15KT 5SM -SHRA OVC005
     FM051400 36017G23KT 5SM -SHRA BKN007=

USA.gov is the U.S. government's official web portal to all federal, state and local government web resources and services.